Time,TemperatureF,DewpointF,PressureIn,WindDirection,WindDirectionDegrees,WindSpeedMPH,WindSpeedGustMPH,Humidity,HourlyPrecipIn,Conditions,Clouds,dailyrainin,SoftwareType,DateUTC
2013-04-10 00:02:00,61.7,12.0,-100.00,NNE,23,19.0,25.0,14,0.00,,,0.00,meteohub,2013-04-10 07:02:00,
2013-04-10 00:07:00,61.9,12.2,-100.00,North,0,16.0,25.0,14,0.00,,,0.00,meteohub,2013-04-10 07:07:00,
2013-04-10 00:12:00,61.9,12.2,-100.00,North,355,15.0,28.0,14,0.00,,,0.00,meteohub,2013-04-10 07:12:00,
2013-04-10 00:39:00,61.5,11.8,-100.00,North,10,11.0,25.0,14,0.00,,,0.00,meteohub,2013-04-10 07:39:00,
2013-04-10 00:49:00,61.5,11.8,-100.00,NNW,348,9.0,19.0,14,0.00,,,0.00,meteohub,2013-04-10 07:49:00,
2013-04-10 00:57:00,61.3,10.0,-100.00,NNW,343,10.0,18.0,13,0.00,,,0.00,meteohub,2013-04-10 07:57:00,
2013-04-10 01:05:00,61.2,9.9,-100.00,North,355,8.0,14.0,13,0.00,,,0.00,meteohub,2013-04-10 08:05:00,
2013-04-10 01:16:00,61.0,9.7,-100.00,NNW,331,4.0,14.0,13,0.00,,,0.00,meteohub,2013-04-10 08:16:00,
2013-04-10 01:23:00,61.0,9.7,-100.00,NNW,344,5.0,12.0,13,0.00,,,0.00,meteohub,2013-04-10 08:23:00,
2013-04-10 01:30:00,60.4,10.9,-100.00,WNW,302,5.0,10.0,14,0.00,,,0.00,meteohub,2013-04-10 08:30:00,
2013-04-10 01:39:00,60.4,9.3,-100.00,NNW,335,7.0,11.0,13,0.00,,,0.00,meteohub,2013-04-10 08:39:00,
2013-04-10 01:52:00,60.4,9.3,-100.00,North,351,9.0,12.0,13,0.00,,,0.00,meteohub,2013-04-10 08:52:00,
2013-04-10 01:58:00,60.4,9.3,-100.00,North,350,12.0,12.0,13,0.00,,,0.00,meteohub,2013-04-10 08:58:00,
2013-04-10 02:03:00,60.3,9.1,-100.00,North,5,11.0,12.0,13,0.00,,,0.00,meteohub,2013-04-10 09:03:00,
2013-04-10 02:08:00,59.9,9.0,-100.00,North,0,14.0,14.0,13,0.00,,,0.00,meteohub,2013-04-10 09:08:00,
2013-04-10 02:13:00,59.5,10.2,-100.00,North,355,12.0,18.0,14,0.00,,,0.00,meteohub,2013-04-10 09:13:00,
2013-04-10 02:18:00,59.4,10.2,-100.00,North,0,16.0,18.0,14,0.00,,,0.00,meteohub,2013-04-10 09:18:00,
2013-04-10 02:23:00,59.4,10.2,-100.00,North,5,15.0,22.0,14,0.00,,,0.00,meteohub,2013-04-10 09:23:00,
2013-04-10 02:28:00,59.7,10.4,-100.00,NNW,348,19.0,22.0,14,0.00,,,0.00,meteohub,2013-04-10 09:28:00,
2013-04-10 02:33:00,59.7,10.4,-100.00,NNW,344,13.0,22.0,14,0.00,,,0.00,meteohub,2013-04-10 09:33:00,
2013-04-10 02:38:00,59.7,10.4,-100.00,NNW,336,11.0,21.0,14,0.00,,,0.00,meteohub,2013-04-10 09:38:00,
2013-04-10 02:43:00,59.7,8.8,-100.00,NNW,342,11.0,20.0,13,0.00,,,0.00,meteohub,2013-04-10 09:43:00,
2013-04-10 02:48:00,59.7,10.4,-100.00,NNW,329,12.0,19.0,14,0.00,,,0.00,meteohub,2013-04-10 09:48:00,
2013-04-10 02:53:00,59.9,9.0,-100.00,WNW,296,9.0,17.0,13,0.00,,,0.00,meteohub,2013-04-10 09:53:00,
2013-04-10 02:58:00,59.2,10.0,-100.00,NW,307,6.0,16.0,14,0.00,,,0.00,meteohub,2013-04-10 09:58:00,
2013-04-10 03:03:00,58.5,10.9,-100.00,West,276,10.0,14.0,15,0.00,,,0.00,meteohub,2013-04-10 10:03:00,
2013-04-10 03:08:00,57.4,11.5,-100.00,WNW,295,11.0,14.0,16,0.00,,,0.00,meteohub,2013-04-10 10:08:00,
2013-04-10 03:13:00,57.0,12.6,-100.00,NW,312,11.0,14.0,17,0.00,,,0.00,meteohub,2013-04-10 10:13:00,
2013-04-10 03:18:00,57.0,14.0,-100.00,NW,317,9.0,14.0,18,0.00,,,0.00,meteohub,2013-04-10 10:18:00,
2013-04-10 03:23:00,57.2,12.7,-100.00,NW,317,13.0,15.0,17,0.00,,,0.00,meteohub,2013-04-10 10:23:00,
2013-04-10 03:28:00,57.4,12.9,-100.00,NW,321,10.0,16.0,17,0.00,,,0.00,meteohub,2013-04-10 10:28:00,
2013-04-10 03:33:00,57.4,12.9,-100.00,NNW,338,10.0,17.0,17,0.00,,,0.00,meteohub,2013-04-10 10:33:00,
2013-04-10 03:38:00,57.6,14.4,-100.00,NW,326,14.0,17.0,18,0.00,,,0.00,meteohub,2013-04-10 10:38:00,
2013-04-10 03:43:00,57.6,13.1,-100.00,North,351,8.0,17.0,17,0.00,,,0.00,meteohub,2013-04-10 10:43:00,
2013-04-10 03:48:00,57.6,14.4,-100.00,NW,309,12.0,16.0,18,0.00,,,0.00,meteohub,2013-04-10 10:48:00,
2013-04-10 03:53:00,57.6,13.1,-100.00,NNW,327,8.0,19.0,17,0.00,,,0.00,meteohub,2013-04-10 10:53:00,
2013-04-10 03:58:00,57.6,14.4,-100.00,NW,310,8.0,19.0,18,0.00,,,0.00,meteohub,2013-04-10 10:58:00,
2013-04-10 04:03:00,57.6,13.1,-100.00,NW,318,10.0,19.0,17,0.00,,,0.00,meteohub,2013-04-10 11:03:00,
2013-04-10 04:08:00,57.4,12.9,-100.00,NNW,334,8.0,15.0,17,0.00,,,0.00,meteohub,2013-04-10 11:08:00,
2013-04-10 04:13:00,57.4,12.9,-100.00,NNW,342,15.0,17.0,17,0.00,,,0.00,meteohub,2013-04-10 11:13:00,
2013-04-10 04:18:00,57.6,14.4,-100.00,NW,326,9.0,17.0,18,0.00,,,0.00,meteohub,2013-04-10 11:18:00,
2013-04-10 04:23:00,57.6,13.1,-100.00,North,351,11.0,17.0,17,0.00,,,0.00,meteohub,2013-04-10 11:23:00,
2013-04-10 04:28:00,57.6,13.1,-100.00,North,351,8.0,17.0,17,0.00,,,0.00,meteohub,2013-04-10 11:28:00,
2013-04-10 04:33:00,57.6,13.1,-100.00,NNE,14,7.0,17.0,17,0.00,,,0.00,meteohub,2013-04-10 11:33:00,
2013-04-10 04:38:00,57.6,13.1,-100.00,NNW,338,9.0,17.0,17,0.00,,,0.00,meteohub,2013-04-10 11:38:00,
2013-04-10 04:43:00,57.6,13.1,-100.00,North,355,3.0,15.0,17,0.00,,,0.00,meteohub,2013-04-10 11:43:00,
2013-04-10 04:48:00,57.6,13.1,-100.00,NNW,345,1.0,15.0,17,0.00,,,0.00,meteohub,2013-04-10 11:48:00,
2013-04-10 04:53:00,57.4,12.9,-100.00,SSW,209,7.0,13.0,17,0.00,,,0.00,meteohub,2013-04-10 11:53:00,
2013-04-10 04:58:00,56.8,13.8,-100.00,SW,226,6.0,11.0,18,0.00,,,0.00,meteohub,2013-04-10 11:58:00,
2013-04-10 05:03:00,56.7,13.6,-100.00,SSW,202,1.0,11.0,18,0.00,,,0.00,meteohub,2013-04-10 12:03:00,
2013-04-10 05:08:00,56.3,13.3,-100.00,SW,231,4.0,11.0,18,0.00,,,0.00,meteohub,2013-04-10 12:08:00,
2013-04-10 05:13:00,55.9,13.1,-100.00,NW,306,4.0,10.0,18,0.00,,,0.00,meteohub,2013-04-10 12:13:00,
2013-04-10 05:18:00,55.9,13.1,-100.00,NNW,327,9.0,9.0,18,0.00,,,0.00,meteohub,2013-04-10 12:18:00,
2013-04-10 05:24:00,55.9,13.1,-100.00,NNW,346,9.0,12.0,18,0.00,,,0.00,meteohub,2013-04-10 12:24:00,
2013-04-10 05:29:00,55.9,13.1,-100.00,North,355,10.0,13.0,18,0.00,,,0.00,meteohub,2013-04-10 12:29:00,
2013-04-10 05:34:00,55.9,13.1,-100.00,North,355,14.0,14.0,18,0.00,,,0.00,meteohub,2013-04-10 12:34:00,
2013-04-10 05:39:00,55.9,13.1,-100.00,North,5,10.0,14.0,18,0.00,,,0.00,meteohub,2013-04-10 12:39:00,
2013-04-10 05:44:00,55.9,13.1,-100.00,NNW,346,10.0,14.0,18,0.00,,,0.00,meteohub,2013-04-10 12:44:00,
2013-04-10 05:49:00,56.1,13.1,-100.00,NNW,346,10.0,14.0,18,0.00,,,0.00,meteohub,2013-04-10 12:49:00,
2013-04-10 05:54:00,55.9,13.1,-100.00,North,355,6.0,14.0,18,0.00,,,0.00,meteohub,2013-04-10 12:54:00,
2013-04-10 05:59:00,55.9,13.1,-100.00,NNE,28,2.0,14.0,18,0.00,,,0.00,meteohub,2013-04-10 12:59:00,
2013-04-10 06:04:00,55.8,12.9,-100.00,East,100,0.0,12.0,18,0.00,,,0.00,meteohub,2013-04-10 13:04:00,
2013-04-10 06:09:00,55.8,14.2,-100.00,East,98,2.0,11.0,19,0.00,,,0.00,meteohub,2013-04-10 13:09:00,
2013-04-10 06:14:00,55.2,13.6,-100.00,SSW,193,4.0,6.0,19,0.00,,,0.00,meteohub,2013-04-10 13:14:00,
2013-04-10 06:19:00,54.9,13.3,-100.00,SW,236,2.0,6.0,19,0.00,,,0.00,meteohub,2013-04-10 13:19:00,
2013-04-10 06:24:00,54.9,13.3,-100.00,SW,236,0.0,6.0,19,0.00,,,0.00,meteohub,2013-04-10 13:24:00,
2013-04-10 06:29:00,54.9,13.3,-100.00,SW,236,0.0,6.0,19,0.00,,,0.00,meteohub,2013-04-10 13:29:00,
2013-04-10 06:34:00,54.7,13.3,-100.00,SW,236,0.0,6.0,19,0.00,,,0.00,meteohub,2013-04-10 13:34:00,
2013-04-10 06:39:00,54.7,13.3,-100.00,SW,236,2.0,4.0,19,0.00,,,0.00,meteohub,2013-04-10 13:39:00,
2013-04-10 06:44:00,54.3,14.0,-100.00,SW,236,0.0,4.0,20,0.00,,,0.00,meteohub,2013-04-10 13:44:00,
2013-04-10 06:49:00,54.5,13.1,-100.00,SW,236,5.0,5.0,19,0.00,,,0.00,meteohub,2013-04-10 13:49:00,
2013-04-10 06:54:00,54.0,13.8,-100.00,SW,236,3.0,5.0,20,0.00,,,0.00,meteohub,2013-04-10 13:54:00,
2013-04-10 06:59:00,54.9,13.3,-100.00,SW,236,3.0,5.0,19,0.00,,,0.00,meteohub,2013-04-10 13:59:00,
2013-04-10 07:04:00,54.7,13.3,-100.00,WSW,251,4.0,5.0,19,0.00,,,0.00,meteohub,2013-04-10 14:04:00,
2013-04-10 07:09:00,55.9,13.1,-100.00,WSW,252,2.0,5.0,18,0.00,,,0.00,meteohub,2013-04-10 14:09:00,
2013-04-10 07:14:00,56.3,12.0,-100.00,WSW,252,0.0,5.0,17,0.00,,,0.00,meteohub,2013-04-10 14:14:00,
2013-04-10 07:19:00,56.5,14.7,-100.00,WSW,252,0.0,5.0,19,0.00,,,0.00,meteohub,2013-04-10 14:19:00,
2013-04-10 07:24:00,56.7,14.9,-100.00,WSW,252,0.0,4.0,19,0.00,,,0.00,meteohub,2013-04-10 14:24:00,
2013-04-10 07:29:00,56.1,14.4,-100.00,WSW,252,2.0,2.0,19,0.00,,,0.00,meteohub,2013-04-10 14:29:00,
2013-04-10 07:34:00,57.9,20.3,-100.00,WSW,251,5.0,5.0,23,0.00,,,0.00,meteohub,2013-04-10 14:34:00,
2013-04-10 07:39:00,57.6,15.6,-100.00,SW,230,5.0,6.0,19,0.00,,,0.00,meteohub,2013-04-10 14:39:00,
2013-04-10 07:44:00,58.3,17.4,-100.00,SW,229,3.0,7.0,20,0.00,,,0.00,meteohub,2013-04-10 14:44:00,
2013-04-10 07:49:00,58.8,15.4,-100.00,WSW,257,4.0,7.0,18,0.00,,,0.00,meteohub,2013-04-10 14:49:00,
2013-04-10 07:54:00,58.6,14.0,-100.00,West,274,2.0,7.0,17,0.00,,,0.00,meteohub,2013-04-10 14:54:00,
2013-04-10 07:59:00,59.2,14.4,-100.00,West,274,1.0,7.0,17,0.00,,,0.00,meteohub,2013-04-10 14:59:00,
2013-04-10 08:04:00,59.7,14.9,-100.00,West,274,1.0,7.0,17,0.00,,,0.00,meteohub,2013-04-10 15:04:00,
2013-04-10 08:09:00,60.6,14.2,-100.00,West,274,0.0,5.0,16,0.00,,,0.00,meteohub,2013-04-10 15:09:00,
2013-04-10 08:14:00,61.0,14.5,-100.00,SW,232,3.0,3.0,16,0.00,,,0.00,meteohub,2013-04-10 15:14:00,
2013-04-10 08:19:00,62.8,14.4,-100.00,SSW,197,2.0,4.0,15,0.00,,,0.00,meteohub,2013-04-10 15:19:00,
2013-04-10 08:24:00,62.1,13.8,-100.00,NNW,339,5.0,7.0,15,0.00,,,0.00,meteohub,2013-04-10 15:24:00,
2013-04-10 08:29:00,62.4,14.2,-100.00,North,0,2.0,7.0,15,0.00,,,0.00,meteohub,2013-04-10 15:29:00,
2013-04-10 08:34:00,62.1,13.8,-100.00,North,0,0.0,7.0,15,0.00,,,0.00,meteohub,2013-04-10 15:34:00,
2013-04-10 08:39:00,63.3,14.9,-100.00,North,0,1.0,7.0,15,0.00,,,0.00,meteohub,2013-04-10 15:39:00,
2013-04-10 08:44:00,63.9,13.6,-100.00,North,0,1.0,6.0,14,0.00,,,0.00,meteohub,2013-04-10 15:44:00,
2013-04-10 08:49:00,64.6,12.6,-100.00,North,0,2.0,4.0,13,0.00,,,0.00,meteohub,2013-04-10 15:49:00,
2013-04-10 08:54:00,63.5,11.8,-100.00,North,0,2.0,4.0,13,0.00,,,0.00,meteohub,2013-04-10 15:54:00,
2013-04-10 08:59:00,63.1,11.5,-100.00,North,0,2.0,6.0,13,0.00,,,0.00,meteohub,2013-04-10 15:59:00,
2013-04-10 09:04:00,63.9,12.0,-100.00,North,5,2.0,6.0,13,0.00,,,0.00,meteohub,2013-04-10 16:04:00,
2013-04-10 09:09:00,64.8,10.9,-100.00,North,5,0.0,6.0,12,0.00,,,0.00,meteohub,2013-04-10 16:09:00,
2013-04-10 09:14:00,65.7,13.5,-100.00,North,5,2.0,4.0,13,0.00,,,0.00,meteohub,2013-04-10 16:14:00,
2013-04-10 09:19:00,65.1,9.3,-100.00,North,5,1.0,4.0,11,0.00,,,0.00,meteohub,2013-04-10 16:19:00,
2013-04-10 09:24:00,66.4,10.2,-100.00,North,5,4.0,4.0,11,0.00,,,0.00,meteohub,2013-04-10 16:24:00,
2013-04-10 09:29:00,65.8,9.9,-100.00,North,5,2.0,4.0,11,0.00,,,0.00,meteohub,2013-04-10 16:29:00,
2013-04-10 09:34:00,66.9,8.6,-100.00,ENE,74,3.0,6.0,10,0.00,,,0.00,meteohub,2013-04-10 16:34:00,
2013-04-10 09:39:00,67.5,9.0,-100.00,ENE,77,4.0,9.0,10,0.00,,,0.00,meteohub,2013-04-10 16:39:00,
2013-04-10 09:44:00,68.0,9.3,-100.00,East,90,5.0,9.0,10,0.00,,,0.00,meteohub,2013-04-10 16:44:00,
2013-04-10 09:49:00,68.4,9.7,-100.00,ENE,61,4.0,9.0,10,0.00,,,0.00,meteohub,2013-04-10 16:49:00,
2013-04-10 09:54:00,68.7,7.5,-100.00,ESE,104,8.0,10.0,9,0.00,,,0.00,meteohub,2013-04-10 16:54:00,
2013-04-10 09:59:00,69.3,8.1,-100.00,East,90,10.0,10.0,9,0.00,,,0.00,meteohub,2013-04-10 16:59:00,
2013-04-10 10:04:00,69.4,8.1,-100.00,East,88,6.0,12.0,9,0.00,,,0.00,meteohub,2013-04-10 17:04:00,
2013-04-10 10:09:00,69.8,8.4,-100.00,ENE,71,2.0,12.0,9,0.00,,,0.00,meteohub,2013-04-10 17:09:00,
2013-04-10 10:14:00,70.0,8.6,-100.00,ENE,71,3.0,12.0,9,0.00,,,0.00,meteohub,2013-04-10 17:14:00,
2013-04-10 10:19:00,70.2,8.6,-100.00,East,86,6.0,11.0,9,0.00,,,0.00,meteohub,2013-04-10 17:19:00,
2013-04-10 10:24:00,70.9,11.7,-100.00,ESE,112,5.0,11.0,10,0.00,,,0.00,meteohub,2013-04-10 17:24:00,
2013-04-10 10:29:00,70.0,8.6,-100.00,SE,131,3.0,10.0,9,0.00,,,0.00,meteohub,2013-04-10 17:29:00,
2013-04-10 10:34:00,70.0,8.6,-100.00,SE,131,3.0,10.0,9,0.00,,,0.00,meteohub,2013-04-10 17:34:00,
2013-04-10 10:39:00,69.6,8.2,-100.00,SE,132,5.0,10.0,9,0.00,,,0.00,meteohub,2013-04-10 17:39:00,
2013-04-10 10:44:00,70.2,6.1,-100.00,SE,144,2.0,6.0,8,0.00,,,0.00,meteohub,2013-04-10 17:44:00,
2013-04-10 10:49:00,70.3,8.8,-100.00,SE,144,2.0,8.0,9,0.00,,,0.00,meteohub,2013-04-10 17:49:00,
2013-04-10 10:54:00,70.2,6.1,-100.00,East,94,0.0,8.0,8,0.00,,,0.00,meteohub,2013-04-10 17:54:00,
2013-04-10 10:59:00,70.2,6.1,-100.00,East,94,1.0,7.0,8,0.00,,,0.00,meteohub,2013-04-10 17:59:00,
2013-04-10 11:04:00,71.1,6.8,-100.00,ESE,120,5.0,7.0,8,0.00,,,0.00,meteohub,2013-04-10 18:04:00,
2013-04-10 11:09:00,72.0,7.3,-100.00,ENE,69,5.0,8.0,8,0.00,,,0.00,meteohub,2013-04-10 18:09:00,
2013-04-10 11:14:00,71.4,7.0,-100.00,NE,54,1.0,10.0,8,0.00,,,0.00,meteohub,2013-04-10 18:14:00,
2013-04-10 11:19:00,71.2,6.8,-100.00,ENE,57,5.0,10.0,8,0.00,,,0.00,meteohub,2013-04-10 18:19:00,
2013-04-10 11:24:00,72.1,10.2,-100.00,East,84,5.0,10.0,9,0.00,,,0.00,meteohub,2013-04-10 18:24:00,
2013-04-10 11:29:00,73.0,8.2,-100.00,ESE,115,7.0,8.0,8,0.00,,,0.00,meteohub,2013-04-10 18:29:00,
2013-04-10 11:34:00,73.4,8.4,-100.00,ESE,104,7.0,12.0,8,0.00,,,0.00,meteohub,2013-04-10 18:34:00,
2013-04-10 11:39:00,73.9,5.9,-100.00,ESE,107,4.0,12.0,7,0.00,,,0.00,meteohub,2013-04-10 18:39:00,
2013-04-10 11:44:00,73.2,8.4,-100.00,ESE,107,0.0,12.0,8,0.00,,,0.00,meteohub,2013-04-10 18:44:00,
2013-04-10 11:49:00,73.8,8.8,-100.00,ESE,115,1.0,9.0,8,0.00,,,0.00,meteohub,2013-04-10 18:49:00,
2013-04-10 11:54:00,74.5,6.3,-100.00,SE,124,4.0,9.0,7,0.00,,,0.00,meteohub,2013-04-10 18:54:00,
2013-04-10 11:59:00,74.1,9.0,-100.00,South,182,2.0,5.0,8,0.00,,,0.00,meteohub,2013-04-10 18:59:00,
2013-04-10 12:04:00,74.3,9.1,-100.00,South,175,7.0,8.0,8,0.00,,,0.00,meteohub,2013-04-10 19:04:00,
2013-04-10 12:09:00,74.5,6.3,-100.00,SSE,156,2.0,11.0,7,0.00,,,0.00,meteohub,2013-04-10 19:09:00,
2013-04-10 12:14:00,74.1,6.1,-100.00,SSE,156,2.0,11.0,7,0.00,,,0.00,meteohub,2013-04-10 19:14:00,
2013-04-10 12:20:00,74.5,6.3,-100.00,SSE,156,1.0,11.0,7,0.00,,,0.00,meteohub,2013-04-10 19:20:00,
2013-04-10 12:25:00,74.7,9.5,-100.00,SSE,156,3.0,9.0,8,0.00,,,0.00,meteohub,2013-04-10 19:25:00,
2013-04-10 12:30:00,73.9,5.9,-100.00,East,86,2.0,5.0,7,0.00,,,0.00,meteohub,2013-04-10 19:30:00,
2013-04-10 12:35:00,74.7,6.4,-100.00,East,86,2.0,8.0,7,0.00,,,0.00,meteohub,2013-04-10 19:35:00,
2013-04-10 12:40:00,74.7,6.4,-100.00,East,94,0.0,8.0,7,0.00,,,0.00,meteohub,2013-04-10 19:40:00,
2013-04-10 12:45:00,73.6,8.6,-100.00,ESE,116,8.0,8.0,8,0.00,,,0.00,meteohub,2013-04-10 19:45:00,
2013-04-10 12:50:00,75.4,7.0,-100.00,SSE,157,4.0,8.0,7,0.00,,,0.00,meteohub,2013-04-10 19:50:00,
2013-04-10 12:55:00,77.5,5.2,-100.00,East,82,2.0,8.0,6,0.00,,,0.00,meteohub,2013-04-10 19:55:00,
2013-04-10 13:00:00,77.2,5.0,-100.00,ENE,72,5.0,10.0,6,0.00,,,0.00,meteohub,2013-04-10 20:00:00,
2013-04-10 13:05:00,76.6,7.9,-100.00,SE,126,2.0,10.0,7,0.00,,,0.00,meteohub,2013-04-10 20:05:00,
2013-04-10 13:10:00,76.3,7.7,-100.00,SE,126,2.0,10.0,7,0.00,,,0.00,meteohub,2013-04-10 20:10:00,
2013-04-10 13:15:00,75.7,7.3,-100.00,SE,124,0.0,8.0,7,0.00,,,0.00,meteohub,2013-04-10 20:15:00,
2013-04-10 13:20:00,77.0,8.2,-100.00,SE,136,1.0,7.0,7,0.00,,,0.00,meteohub,2013-04-10 20:20:00,
2013-04-10 13:25:00,78.3,9.1,-100.00,SE,136,0.0,6.0,7,0.00,,,0.00,meteohub,2013-04-10 20:25:00,
2013-04-10 13:30:00,78.1,9.0,-100.00,SW,217,1.0,6.0,7,0.00,,,0.00,meteohub,2013-04-10 20:30:00,
2013-04-10 13:35:00,77.2,11.3,-100.00,SW,217,4.0,8.0,8,0.00,,,0.00,meteohub,2013-04-10 20:35:00,
2013-04-10 13:40:00,76.8,8.1,-100.00,SW,220,1.0,8.0,7,0.00,,,0.00,meteohub,2013-04-10 20:40:00,
2013-04-10 13:45:00,77.7,11.7,-100.00,SW,220,0.0,8.0,8,0.00,,,0.00,meteohub,2013-04-10 20:45:00,
2013-04-10 13:50:00,78.6,9.3,-100.00,SW,219,0.0,5.0,7,0.00,,,0.00,meteohub,2013-04-10 20:50:00,
2013-04-10 13:55:00,78.8,6.1,-100.00,SW,219,2.0,5.0,6,0.00,,,0.00,meteohub,2013-04-10 20:55:00,
2013-04-10 14:00:00,78.4,9.3,-100.00,SSW,192,3.0,5.0,7,0.00,,,0.00,meteohub,2013-04-10 21:00:00,
2013-04-10 14:05:00,78.3,9.1,-100.00,South,191,2.0,5.0,7,0.00,,,0.00,meteohub,2013-04-10 21:05:00,
2013-04-10 14:10:00,79.9,10.2,-100.00,SE,126,8.0,9.0,7,0.00,,,0.00,meteohub,2013-04-10 21:10:00,
2013-04-10 14:15:00,80.1,7.0,-100.00,SE,138,3.0,9.0,6,0.00,,,0.00,meteohub,2013-04-10 21:15:00,
2013-04-10 14:20:00,79.5,10.0,-100.00,SE,138,2.0,9.0,7,0.00,,,0.00,meteohub,2013-04-10 21:20:00,
2013-04-10 14:25:00,80.6,10.8,-100.00,East,101,8.0,10.0,7,0.00,,,0.00,meteohub,2013-04-10 21:25:00,
2013-04-10 14:30:00,81.3,11.3,-100.00,ESE,108,4.0,10.0,7,0.00,,,0.00,meteohub,2013-04-10 21:30:00,
2013-04-10 14:35:00,81.0,7.7,-100.00,ESE,111,4.0,10.0,6,0.00,,,0.00,meteohub,2013-04-10 21:35:00,
2013-04-10 14:40:00,80.6,10.8,-100.00,East,91,7.0,10.0,7,0.00,,,0.00,meteohub,2013-04-10 21:40:00,
2013-04-10 14:45:00,81.1,11.3,-100.00,SE,124,8.0,8.0,7,0.00,,,0.00,meteohub,2013-04-10 21:45:00,
2013-04-10 14:50:00,81.3,11.3,-100.00,ESE,118,7.0,12.0,7,0.00,,,0.00,meteohub,2013-04-10 21:50:00,
2013-04-10 14:55:00,81.0,11.1,-100.00,SE,130,4.0,12.0,7,0.00,,,0.00,meteohub,2013-04-10 21:55:00,
2013-04-10 15:00:00,81.1,11.3,-100.00,SE,130,3.0,12.0,7,0.00,,,0.00,meteohub,2013-04-10 22:00:00,
2013-04-10 15:05:00,81.9,11.8,-100.00,SSE,168,7.0,9.0,7,0.00,,,0.00,meteohub,2013-04-10 22:05:00,
2013-04-10 15:10:00,81.1,11.3,-100.00,SE,140,7.0,8.0,7,0.00,,,0.00,meteohub,2013-04-10 22:10:00,
2013-04-10 15:15:00,81.9,14.7,-100.00,SSE,161,7.0,8.0,8,0.00,,,0.00,meteohub,2013-04-10 22:15:00,
2013-04-10 15:21:00,81.7,11.7,-100.00,South,184,2.0,8.0,7,0.00,,,0.00,meteohub,2013-04-10 22:21:00,
2013-04-10 15:26:00,82.2,12.0,-100.00,ESE,108,8.0,10.0,7,0.00,,,0.00,meteohub,2013-04-10 22:26:00,
2013-04-10 15:31:00,82.2,8.6,-100.00,ESE,117,12.0,12.0,6,0.00,,,0.00,meteohub,2013-04-10 22:31:00,
2013-04-10 15:36:00,82.4,12.2,-100.00,ESE,119,7.0,13.0,7,0.00,,,0.00,meteohub,2013-04-10 22:36:00,
2013-04-10 15:41:00,82.6,8.8,-100.00,SE,132,8.0,13.0,6,0.00,,,0.00,meteohub,2013-04-10 22:41:00,
2013-04-10 15:46:00,82.0,8.4,-100.00,ESE,111,4.0,15.0,6,0.00,,,0.00,meteohub,2013-04-10 22:46:00,
2013-04-10 15:52:00,82.0,11.8,-100.00,ESE,105,4.0,15.0,7,0.00,,,0.00,meteohub,2013-04-10 22:52:00,
2013-04-10 15:57:00,82.0,8.4,-100.00,East,86,7.0,9.0,6,0.00,,,0.00,meteohub,2013-04-10 22:57:00,
2013-04-10 16:02:00,81.7,11.7,-100.00,East,79,2.0,9.0,7,0.00,,,0.00,meteohub,2013-04-10 23:02:00,
2013-04-10 16:07:00,81.9,11.8,-100.00,East,79,6.0,9.0,7,0.00,,,0.00,meteohub,2013-04-10 23:07:00,
2013-04-10 16:12:00,81.9,11.8,-100.00,East,86,0.0,7.0,7,0.00,,,0.00,meteohub,2013-04-10 23:12:00,
2013-04-10 16:17:00,82.0,11.8,-100.00,ESE,105,4.0,7.0,7,0.00,,,0.00,meteohub,2013-04-10 23:17:00,
2013-04-10 16:22:00,82.2,12.0,-100.00,ESE,115,7.0,8.0,7,0.00,,,0.00,meteohub,2013-04-10 23:22:00,
2013-04-10 16:27:00,81.9,11.8,-100.00,East,95,2.0,8.0,7,0.00,,,0.00,meteohub,2013-04-10 23:27:00,
2013-04-10 16:32:00,81.1,11.3,-100.00,East,95,0.0,8.0,7,0.00,,,0.00,meteohub,2013-04-10 23:32:00,
2013-04-10 16:37:00,82.4,12.2,-100.00,ESE,110,1.0,7.0,7,0.00,,,0.00,meteohub,2013-04-10 23:37:00,
2013-04-10 16:42:00,82.0,11.8,-100.00,ESE,111,1.0,8.0,7,0.00,,,0.00,meteohub,2013-04-10 23:42:00,
2013-04-10 16:47:00,82.2,12.0,-100.00,ESE,111,0.0,8.0,7,0.00,,,0.00,meteohub,2013-04-10 23:47:00,
2013-04-10 16:52:00,82.0,11.8,-100.00,ESE,113,0.0,8.0,7,0.00,,,0.00,meteohub,2013-04-10 23:52:00,
2013-04-10 16:57:00,82.0,11.8,-100.00,ESE,112,2.0,5.0,7,0.00,,,0.00,meteohub,2013-04-10 23:57:00,
2013-04-10 17:02:00,82.8,9.0,-100.00,ESE,113,1.0,5.0,6,0.00,,,0.00,meteohub,2013-04-11 00:02:00,
2013-04-10 17:07:00,82.9,12.6,-100.00,ESE,113,3.0,5.0,7,0.00,,,0.00,meteohub,2013-04-11 00:07:00,
2013-04-10 17:12:00,82.8,12.4,-100.00,South,173,4.0,7.0,7,0.00,,,0.00,meteohub,2013-04-11 00:12:00,
2013-04-10 17:17:00,82.4,12.2,-100.00,SSW,198,0.0,7.0,7,0.00,,,0.00,meteohub,2013-04-11 00:17:00,
2013-04-10 17:22:00,82.0,8.4,-100.00,SSW,197,3.0,7.0,6,0.00,,,0.00,meteohub,2013-04-11 00:22:00,
2013-04-10 17:27:00,82.2,8.6,-100.00,SSE,155,4.0,7.0,6,0.00,,,0.00,meteohub,2013-04-11 00:27:00,
2013-04-10 17:32:00,82.0,8.4,-100.00,SSE,155,2.0,7.0,6,0.00,,,0.00,meteohub,2013-04-11 00:32:00,
2013-04-10 17:37:00,81.9,8.2,-100.00,ESE,121,5.0,7.0,6,0.00,,,0.00,meteohub,2013-04-11 00:37:00,
2013-04-10 17:42:00,81.7,11.7,-100.00,ESE,109,8.0,9.0,7,0.00,,,0.00,meteohub,2013-04-11 00:42:00,
2013-04-10 17:47:00,82.0,8.4,-100.00,ESE,122,4.0,9.0,6,0.00,,,0.00,meteohub,2013-04-11 00:47:00,
2013-04-10 17:52:00,82.0,8.4,-100.00,WSW,242,9.0,10.0,6,0.00,,,0.00,meteohub,2013-04-11 00:52:00,
2013-04-10 17:57:00,81.9,8.2,-100.00,South,191,10.0,10.0,6,0.00,,,0.00,meteohub,2013-04-11 00:57:00,
2013-04-10 18:02:00,82.0,8.4,-100.00,South,178,16.0,18.0,6,0.00,,,0.00,meteohub,2013-04-11 01:02:00,
2013-04-10 18:07:00,81.1,7.9,-100.00,SSW,205,15.0,18.0,6,0.00,,,0.00,meteohub,2013-04-11 01:07:00,
2013-04-10 18:12:00,80.6,10.8,-100.00,SSW,207,17.0,18.0,7,0.00,,,0.00,meteohub,2013-04-11 01:12:00,
2013-04-10 18:18:00,80.4,10.8,-100.00,South,190,8.0,18.0,7,0.00,,,0.00,meteohub,2013-04-11 01:18:00,
2013-04-10 18:23:00,80.2,10.6,-100.00,SW,226,11.0,22.0,7,0.00,,,0.00,meteohub,2013-04-11 01:23:00,
2013-04-10 18:28:00,79.7,10.2,-100.00,SSW,211,6.0,22.0,7,0.00,,,0.00,meteohub,2013-04-11 01:28:00,
2013-04-10 18:33:00,79.3,12.9,-100.00,SSW,207,6.0,20.0,8,0.00,,,0.00,meteohub,2013-04-11 01:33:00,
2013-04-10 18:38:00,79.0,12.6,-100.00,SSW,201,12.0,24.0,8,0.00,,,0.00,meteohub,2013-04-11 01:38:00,
2013-04-10 18:43:00,78.8,15.3,-100.00,SSW,207,8.0,24.0,9,0.00,,,0.00,meteohub,2013-04-11 01:43:00,
2013-04-10 18:48:00,78.4,14.9,-100.00,South,191,6.0,24.0,9,0.00,,,0.00,meteohub,2013-04-11 01:48:00,
2013-04-10 18:53:00,78.3,14.7,-100.00,SSW,198,8.0,18.0,9,0.00,,,0.00,meteohub,2013-04-11 01:53:00,
2013-04-10 18:58:00,78.1,17.1,-100.00,South,185,13.0,18.0,10,0.00,,,0.00,meteohub,2013-04-11 01:58:00,
2013-04-10 19:03:00,77.9,16.9,-100.00,SSW,195,7.0,15.0,10,0.00,,,0.00,meteohub,2013-04-11 02:03:00,
2013-04-10 19:08:00,77.4,18.7,-100.00,SW,216,7.0,16.0,11,0.00,,,0.00,meteohub,2013-04-11 02:08:00,
2013-04-10 19:13:00,77.0,20.5,-100.00,SSW,210,11.0,16.0,12,0.00,,,0.00,meteohub,2013-04-11 02:13:00,
2013-04-10 19:18:00,76.6,20.3,-100.00,SW,224,4.0,16.0,12,0.00,,,0.00,meteohub,2013-04-11 02:18:00,
2013-04-10 19:23:00,76.5,21.9,-100.00,SW,214,7.0,16.0,13,0.00,,,0.00,meteohub,2013-04-11 02:23:00,
2013-04-10 19:28:00,75.9,21.6,-100.00,SSW,197,10.0,14.0,13,0.00,,,0.00,meteohub,2013-04-11 02:28:00,
2013-04-10 19:33:00,75.7,23.2,-100.00,SW,217,4.0,16.0,14,0.00,,,0.00,meteohub,2013-04-11 02:33:00,
2013-04-10 19:38:00,75.6,23.0,-100.00,SSW,202,9.0,16.0,14,0.00,,,0.00,meteohub,2013-04-11 02:38:00,
2013-04-10 19:43:00,75.4,22.8,-100.00,SW,218,11.0,15.0,14,0.00,,,0.00,meteohub,2013-04-11 02:43:00,
2013-04-10 19:48:00,74.7,22.3,-100.00,SSW,207,7.0,15.0,14,0.00,,,0.00,meteohub,2013-04-11 02:48:00,
2013-04-10 19:53:00,74.3,23.7,-100.00,SW,223,10.0,15.0,15,0.00,,,0.00,meteohub,2013-04-11 02:53:00,
2013-04-10 19:58:00,73.9,25.0,-100.00,SW,224,5.0,15.0,16,0.00,,,0.00,meteohub,2013-04-11 02:58:00,
2013-04-10 20:03:00,73.8,24.8,-100.00,SSW,205,7.0,15.0,16,0.00,,,0.00,meteohub,2013-04-11 03:03:00,
2013-04-10 20:08:00,73.6,24.6,-100.00,SW,215,4.0,15.0,16,0.00,,,0.00,meteohub,2013-04-11 03:08:00,
2013-04-10 20:13:00,73.0,25.7,-100.00,SSW,208,7.0,14.0,17,0.00,,,0.00,meteohub,2013-04-11 03:13:00,
2013-04-10 20:18:00,72.7,25.3,-100.00,SW,227,8.0,14.0,17,0.00,,,0.00,meteohub,2013-04-11 03:18:00,
2013-04-10 20:23:00,72.3,25.0,-100.00,SW,215,8.0,16.0,17,0.00,,,0.00,meteohub,2013-04-11 03:23:00,
2013-04-10 20:28:00,72.1,25.0,-100.00,SSW,206,7.0,18.0,17,0.00,,,0.00,meteohub,2013-04-11 03:28:00,
2013-04-10 20:33:00,72.1,25.0,-100.00,South,185,17.0,18.0,17,0.00,,,0.00,meteohub,2013-04-11 03:33:00,
2013-04-10 20:38:00,72.0,24.8,-100.00,South,177,9.0,15.0,17,0.00,,,0.00,meteohub,2013-04-11 03:38:00,
2013-04-10 20:43:00,71.6,25.9,-100.00,SSW,195,10.0,17.0,18,0.00,,,0.00,meteohub,2013-04-11 03:43:00,
2013-04-10 20:48:00,71.2,25.5,-100.00,South,187,9.0,17.0,18,0.00,,,0.00,meteohub,2013-04-11 03:48:00,
2013-04-10 20:53:00,71.1,25.3,-100.00,South,175,11.0,15.0,18,0.00,,,0.00,meteohub,2013-04-11 03:53:00,
2013-04-10 20:58:00,70.9,25.3,-100.00,SSE,154,10.0,15.0,18,0.00,,,0.00,meteohub,2013-04-11 03:58:00,
2013-04-10 21:00:00,70.9,25.3,-100.00,South,190,12.0,15.0,18,0.00,,,0.00,meteohub,2013-04-11 04:00:00,
2013-04-10 21:06:00,70.7,25.2,-100.00,South,186,12.0,19.0,18,0.00,,,0.00,meteohub,2013-04-11 04:06:00,
2013-04-10 21:11:00,70.5,25.0,-100.00,SSE,159,5.0,19.0,18,0.00,,,0.00,meteohub,2013-04-11 04:11:00,
2013-04-10 21:16:00,70.3,24.8,-100.00,SSW,197,8.0,16.0,18,0.00,,,0.00,meteohub,2013-04-11 04:16:00,
2013-04-10 21:21:00,70.0,23.2,-100.00,South,184,15.0,15.0,17,0.00,,,0.00,meteohub,2013-04-11 04:21:00,
2013-04-10 21:26:00,69.4,24.1,-100.00,SSW,192,13.0,19.0,18,0.00,,,0.00,meteohub,2013-04-11 04:26:00,
2013-04-10 21:31:00,69.1,22.5,-100.00,SSW,195,12.0,19.0,17,0.00,,,0.00,meteohub,2013-04-11 04:31:00,
2013-04-10 21:36:00,68.9,23.7,-100.00,SSW,202,7.0,19.0,18,0.00,,,0.00,meteohub,2013-04-11 04:36:00,
2013-04-10 21:40:00,68.7,23.5,-100.00,South,169,11.0,20.0,18,0.00,,,0.00,meteohub,2013-04-11 04:40:00,
2013-04-10 21:46:00,68.4,23.2,-100.00,South,173,6.0,20.0,18,0.00,,,0.00,meteohub,2013-04-11 04:46:00,
2013-04-10 21:51:00,68.4,23.2,-100.00,SSW,209,2.0,17.0,18,0.00,,,0.00,meteohub,2013-04-11 04:51:00,
2013-04-10 21:56:00,68.4,24.4,-100.00,SW,218,9.0,17.0,19,0.00,,,0.00,meteohub,2013-04-11 04:56:00,
2013-04-10 22:00:00,68.4,24.4,-100.00,SSW,213,14.0,17.0,19,0.00,,,0.00,meteohub,2013-04-11 05:00:00,
2013-04-10 22:06:00,68.4,24.4,-100.00,SSW,192,15.0,17.0,19,0.00,,,0.00,meteohub,2013-04-11 05:06:00,
2013-04-10 22:11:00,68.4,24.4,-100.00,South,185,8.0,17.0,19,0.00,,,0.00,meteohub,2013-04-11 05:11:00,
2013-04-10 22:16:00,68.2,24.3,-100.00,SSW,207,11.0,16.0,19,0.00,,,0.00,meteohub,2013-04-11 05:16:00,
2013-04-10 22:21:00,67.8,24.1,-100.00,SW,220,12.0,16.0,19,0.00,,,0.00,meteohub,2013-04-11 05:21:00,
2013-04-10 22:26:00,67.6,23.9,-100.00,SSW,200,7.0,16.0,19,0.00,,,0.00,meteohub,2013-04-11 05:26:00,
2013-04-10 22:31:00,67.6,23.9,-100.00,SSW,200,10.0,18.0,19,0.00,,,0.00,meteohub,2013-04-11 05:31:00,
2013-04-10 22:36:00,67.5,25.0,-100.00,SW,219,9.0,19.0,20,0.00,,,0.00,meteohub,2013-04-11 05:36:00,
2013-04-10 22:41:00,67.5,26.2,-100.00,West,274,16.0,21.0,21,0.00,,,0.00,meteohub,2013-04-11 05:41:00,
2013-04-10 22:46:00,67.3,26.1,-100.00,WSW,242,11.0,33.0,21,0.00,,,0.00,meteohub,2013-04-11 05:46:00,
2013-04-10 22:51:00,67.6,26.2,-100.00,SW,218,19.0,33.0,21,0.00,,,0.00,meteohub,2013-04-11 05:51:00,
2013-04-10 22:56:00,67.8,25.3,-100.00,SSW,199,7.0,33.0,20,0.00,,,0.00,meteohub,2013-04-11 05:56:00,
2013-04-10 23:01:00,66.9,23.4,-100.00,SW,220,6.0,29.0,19,0.00,,,0.00,meteohub,2013-04-11 06:01:00,
2013-04-10 23:06:00,66.6,23.0,-100.00,SSW,193,14.0,23.0,19,0.00,,,0.00,meteohub,2013-04-11 06:06:00,
2013-04-10 23:11:00,66.0,23.7,-100.00,SSW,199,11.0,17.0,20,0.00,,,0.00,meteohub,2013-04-11 06:11:00,
2013-04-10 23:16:00,65.8,23.7,-100.00,SSW,211,5.0,17.0,20,0.00,,,0.00,meteohub,2013-04-11 06:16:00,
2013-04-10 23:21:00,66.0,23.7,-100.00,SSW,203,6.0,17.0,20,0.00,,,0.00,meteohub,2013-04-11 06:21:00,
2013-04-10 23:26:00,66.4,24.1,-100.00,South,191,11.0,16.0,20,0.00,,,0.00,meteohub,2013-04-11 06:26:00,
2013-04-10 23:31:00,66.0,26.1,-100.00,SSW,207,6.0,15.0,22,0.00,,,0.00,meteohub,2013-04-11 06:31:00,
2013-04-10 23:37:00,66.0,26.1,-100.00,SW,230,5.0,15.0,22,0.00,,,0.00,meteohub,2013-04-11 06:37:00,
2013-04-10 23:42:00,65.8,27.0,-100.00,WSW,238,9.0,17.0,23,0.00,,,0.00,meteohub,2013-04-11 06:42:00,
2013-04-10 23:47:00,65.7,26.8,-100.00,SW,225,6.0,17.0,23,0.00,,,0.00,meteohub,2013-04-11 06:47:00,
2013-04-10 23:52:00,65.5,26.8,-100.00,SW,223,7.0,18.0,23,0.00,,,0.00,meteohub,2013-04-11 06:52:00,
2013-04-10 23:57:00,65.5,26.8,-100.00,SSW,207,9.0,18.0,23,0.00,,,0.00,meteohub,2013-04-11 06:57:00,